Simultaneous Nadir Overpasses (SNOs) Predictions

Prediction of SNOs between GOES-15 and METOP-C Satellite Orbit:

Table of predicted SNOs for the next 14.0 days since TLE Epoch: 3/21/2024
Index Date Time (GOES-15) GOES-15 Lat,Lon METOP-C Lat,Lon Distance(km) Time Diff (sec)
1 03/21/2024 17:13:37 0.04, 61.18 0.56, 63.55 269.93 80
2 03/23/2024 05:32:28 -0.04, 61.22 0.46, 58.99 254.32 80
3 03/24/2024 05:14:29 -0.04, 61.22 -0.67, 63.98 315.20 80
4 03/25/2024 17:33:28 0.05, 61.18 -0.33, 59.38 204.05 80
5 03/26/2024 17:10:08 0.04, 61.18 0.75, 64.38 364.83 80
6 03/28/2024 05:28:59 -0.05, 61.23 0.27, 59.82 160.70 80
7 03/29/2024 05:10:59 -0.05, 61.24 -0.82, 64.83 408.09 80
8 03/30/2024 17:29:58 0.06, 61.21 -0.16, 60.23 112.00 80
9 03/31/2024 17:06:37 0.06, 61.22 0.94, 65.23 455.86 80
10 04/02/2024 05:25:29 -0.07, 61.29 0.08, 60.67 71.71 80
11 04/03/2024 05:07:28 -0.07, 61.31 -1.02, 65.67 496.24 80
